Weather in Gelmyazov

Ukraine / Cherkassi District     49°49′29″N   31°50′04″E
temp.,
°C
wind,
m/s
gust,
m/s
humid.,
%
clouds,
%
prec.,
mm/h
press.,
hPa
HPBL,
m
18 may, tue
tue1800:00+14ssw229693 0.0 100332
03:00+13sw349585 0.0 100367
06:00+12s2293100 0.0 100345
09:00+15sse4688100 0.8 1004395
12:00+17se357976 0.3 1002464
15:00+19s677397 2.9 10011097
18:00+18s578184 3.1 1000774
21:00+14se37933 6.5 1000162
19 may, wed
wed1900:00+11sse4109621 0.0 1000310
03:00+10sse399712 0.0 1001240
06:00+10se369714 0.0 1001168
09:00+14sse358299 0.0 1002657
12:00+17sse346799 0.2 10031366
15:00+17sw33687 0.4 1004929
18:00+17w34719 0.8 1005934
21:00+12wnw599599 1.1 1006355
20 may, thu
thu2000:00+12w489597 0.0 1007388
03:00+11wnw589199 0.0 1007558
06:00+11w4794100 0.1 1008486
09:00+13w578157 0.1 1008709
12:00+17wnw5768100 0.0 10091256
15:00+18w4665100 0.3 10101345
18:00+16ssw4581100 1.2 1010412
21:00+12s3693100 1.7 1011203
21 may, fri
fri2100:00+12n2296100 3.6 101170
03:00+12ese2498100 5.1 1012155
06:00+12ese2598100 1.4 1013256
09:00+14ene5887100 1.4 1013588
12:00+15ene5886100 0.1 1013640
15:00+17ene5784100 0.4 1013731
18:00+17ene5787100 2.2 1012527
21:00+14nne4997100 6.0 1013342
22 may, sat
sat2200:00+14nne5997100 1.1 1013349
03:00+13n4897100 1.1 1013366
06:00+13n4897100 0.0 1014371
09:00+14n4692100 0.0 1014528
12:00+16n5787100 0.0 1014699
15:00+17n5679100 0.1 1015832
18:00+16n4787100 0.0 1015531
21:00+15nne3690100 0.0 1016188